Year,Month,Day,Hour,Minute,Value (Times are PST for temperature in C)
2013,07,15,00,00,14.20
2013,07,15,00,01,14.20
2013,07,15,00,02,14.20
2013,07,15,00,03,14.20
2013,07,15,00,04,14.20
2013,07,15,00,05,14.10
2013,07,15,00,06,14.10
2013,07,15,00,07,14.10
2013,07,15,00,08,14.10
2013,07,15,00,09,14.10
2013,07,15,00,10,14.10
2013,07,15,00,11,14.10
2013,07,15,00,12,14.00
2013,07,15,00,13,14.00
2013,07,15,00,14,14.00
2013,07,15,00,15,14.00
2013,07,15,00,16,14.00
2013,07,15,00,17,13.90
2013,07,15,00,18,13.90
2013,07,15,00,19,13.90
2013,07,15,00,20,13.90
2013,07,15,00,21,13.90
2013,07,15,00,22,13.80
2013,07,15,00,23,13.80
2013,07,15,00,24,13.80
2013,07,15,00,25,13.80
2013,07,15,00,26,13.80
2013,07,15,00,27,13.70
2013,07,15,00,28,13.70
2013,07,15,00,29,13.70
2013,07,15,00,30,13.70
2013,07,15,00,31,13.60
2013,07,15,00,32,13.60
2013,07,15,00,33,13.60
2013,07,15,00,34,13.60
2013,07,15,00,35,13.50
2013,07,15,00,36,13.50
2013,07,15,00,37,13.50
2013,07,15,00,38,13.50
2013,07,15,00,39,13.40
2013,07,15,00,40,13.40
2013,07,15,00,41,13.40
2013,07,15,00,42,13.40
2013,07,15,00,43,13.40
2013,07,15,00,44,13.40
2013,07,15,00,45,13.40
2013,07,15,00,46,13.40
2013,07,15,00,47,13.40
2013,07,15,00,48,13.40
2013,07,15,00,49,13.40
2013,07,15,00,50,13.40
2013,07,15,00,51,13.40
2013,07,15,00,52,13.40
2013,07,15,00,53,13.40
2013,07,15,00,54,13.40
2013,07,15,00,55,13.40
2013,07,15,00,56,13.40
2013,07,15,00,57,13.40
2013,07,15,00,58,13.40
2013,07,15,00,59,13.40
2013,07,15,01,00,13.40
2013,07,15,01,01,13.40
2013,07,15,01,02,13.40
2013,07,15,01,03,13.30
2013,07,15,01,04,13.30
2013,07,15,01,05,13.30
2013,07,15,01,06,13.30
2013,07,15,01,07,13.30
2013,07,15,01,08,13.30
2013,07,15,01,09,13.30
2013,07,15,01,10,13.30
2013,07,15,01,11,13.30
2013,07,15,01,12,13.20
2013,07,15,01,13,13.20
2013,07,15,01,14,13.20
2013,07,15,01,15,13.20
2013,07,15,01,16,13.20
2013,07,15,01,17,13.20
2013,07,15,01,18,13.20
2013,07,15,01,19,13.10
2013,07,15,01,20,13.10
2013,07,15,01,21,13.10
2013,07,15,01,22,13.10
2013,07,15,01,23,13.10
2013,07,15,01,24,13.10
2013,07,15,01,25,13.10
2013,07,15,01,26,13.10
2013,07,15,01,27,13.10
2013,07,15,01,28,13.10
2013,07,15,01,29,13.20
2013,07,15,01,30,13.20
2013,07,15,01,31,13.20
2013,07,15,01,32,13.10
2013,07,15,01,33,13.10
2013,07,15,01,34,13.10
2013,07,15,01,35,13.10
2013,07,15,01,36,13.10
2013,07,15,01,37,13.10
2013,07,15,01,38,13.10
2013,07,15,01,39,13.10
2013,07,15,01,40,13.10
2013,07,15,01,41,13.10
2013,07,15,01,42,13.10
2013,07,15,01,43,13.10
2013,07,15,01,44,13.10
2013,07,15,01,45,13.10
2013,07,15,01,46,13.10
2013,07,15,01,47,13.10
2013,07,15,01,48,13.10
2013,07,15,01,49,13.10
2013,07,15,01,50,13.10
2013,07,15,01,51,13.10
2013,07,15,01,52,13.10
2013,07,15,01,53,13.10
2013,07,15,01,54,13.10
2013,07,15,01,55,13.10
2013,07,15,01,56,13.10
2013,07,15,01,57,13.10
2013,07,15,01,58,13.10
2013,07,15,01,59,13.10
2013,07,15,02,00,13.10
2013,07,15,02,01,13.10
2013,07,15,02,02,13.10
2013,07,15,02,03,13.10
2013,07,15,02,04,13.10
2013,07,15,02,05,13.10
2013,07,15,02,06,13.10
2013,07,15,02,07,13.10
2013,07,15,02,08,13.00
2013,07,15,02,09,13.00
2013,07,15,02,10,13.00
2013,07,15,02,11,13.00
2013,07,15,02,12,13.00
2013,07,15,02,13,13.00
2013,07,15,02,14,13.00
2013,07,15,02,15,12.90
2013,07,15,02,16,12.90
2013,07,15,02,17,12.90
2013,07,15,02,18,12.90
2013,07,15,02,19,12.90
2013,07,15,02,20,12.90
2013,07,15,02,21,12.90
2013,07,15,02,22,12.90
2013,07,15,02,23,12.90
2013,07,15,02,24,12.90
2013,07,15,02,25,12.80
2013,07,15,02,26,12.80
2013,07,15,02,27,12.80
2013,07,15,02,28,12.80
2013,07,15,02,29,12.80
2013,07,15,02,30,12.70
2013,07,15,02,31,12.70
2013,07,15,02,32,12.70
2013,07,15,02,33,12.70
2013,07,15,02,34,12.70
2013,07,15,02,35,12.70
2013,07,15,02,36,12.70
2013,07,15,02,37,12.60
2013,07,15,02,38,12.70
2013,07,15,02,39,12.70
2013,07,15,02,40,12.60
2013,07,15,02,41,12.60
2013,07,15,02,42,12.60
2013,07,15,02,43,12.60
2013,07,15,02,44,12.60
2013,07,15,02,45,12.60
2013,07,15,02,46,12.60
2013,07,15,02,47,12.60
2013,07,15,02,48,12.60
2013,07,15,02,49,12.60
2013,07,15,02,50,12.60
2013,07,15,02,51,12.60
2013,07,15,02,52,12.60
2013,07,15,02,53,12.60
2013,07,15,02,54,12.60
2013,07,15,02,55,12.70
2013,07,15,02,56,12.70
2013,07,15,02,57,12.70
2013,07,15,02,58,12.70
2013,07,15,02,59,12.70
2013,07,15,03,00,12.70
2013,07,15,03,01,12.70
2013,07,15,03,02,12.70
2013,07,15,03,03,12.70
2013,07,15,03,04,12.70
2013,07,15,03,05,12.70
2013,07,15,03,06,12.70
2013,07,15,03,07,12.70
2013,07,15,03,08,12.70
2013,07,15,03,09,12.60
2013,07,15,03,10,12.60
2013,07,15,03,11,12.60
2013,07,15,03,12,12.60
2013,07,15,03,13,12.60
2013,07,15,03,14,12.60
2013,07,15,03,15,12.60
2013,07,15,03,16,12.60
2013,07,15,03,17,12.60
2013,07,15,03,18,12.60
2013,07,15,03,19,12.60
2013,07,15,03,20,12.70
2013,07,15,03,21,12.70
2013,07,15,03,22,12.70
2013,07,15,03,23,12.80
2013,07,15,03,24,12.80
2013,07,15,03,25,12.80
2013,07,15,03,26,12.80
2013,07,15,03,27,12.90
2013,07,15,03,28,12.90
2013,07,15,03,29,12.90
2013,07,15,03,30,12.90
2013,07,15,03,31,12.90
2013,07,15,03,32,12.90
2013,07,15,03,33,12.90
2013,07,15,03,34,12.90
2013,07,15,03,35,12.90
2013,07,15,03,36,12.90
2013,07,15,03,37,12.90
2013,07,15,03,38,12.90
2013,07,15,03,39,12.90
2013,07,15,03,40,12.90
2013,07,15,03,41,12.90
2013,07,15,03,42,12.90
2013,07,15,03,43,12.90
2013,07,15,03,44,12.90
2013,07,15,03,45,12.90
2013,07,15,03,46,12.90
2013,07,15,03,47,12.90
2013,07,15,03,48,13.00
2013,07,15,03,49,13.00
2013,07,15,03,50,13.00
2013,07,15,03,51,13.00
2013,07,15,03,52,13.00
2013,07,15,03,53,13.00
2013,07,15,03,54,13.00
2013,07,15,03,55,13.00
2013,07,15,03,56,13.00
2013,07,15,03,57,13.00
2013,07,15,03,58,13.00
2013,07,15,03,59,13.10
2013,07,15,04,00,13.00
2013,07,15,04,01,13.00
2013,07,15,04,02,13.00
2013,07,15,04,03,13.00
2013,07,15,04,04,13.00
2013,07,15,04,05,12.90
2013,07,15,04,06,12.90
2013,07,15,04,07,12.90
2013,07,15,04,08,12.90
2013,07,15,04,09,12.90
2013,07,15,04,10,12.90
2013,07,15,04,11,12.80
2013,07,15,04,12,12.80
2013,07,15,04,13,12.80
2013,07,15,04,14,12.80
2013,07,15,04,15,12.90
2013,07,15,04,16,12.90
2013,07,15,04,17,12.90
2013,07,15,04,18,12.90
2013,07,15,04,19,12.90
2013,07,15,04,20,12.90
2013,07,15,04,21,12.90
2013,07,15,04,22,12.90
2013,07,15,04,23,12.90
2013,07,15,04,24,12.90
2013,07,15,04,25,12.90
2013,07,15,04,26,12.90
2013,07,15,04,27,12.90
2013,07,15,04,28,12.90
2013,07,15,04,29,12.90
2013,07,15,04,30,12.90
2013,07,15,04,31,12.90
2013,07,15,04,32,12.80
2013,07,15,04,33,12.80
2013,07,15,04,34,12.80
2013,07,15,04,35,12.80
2013,07,15,04,36,12.80
2013,07,15,04,37,12.80
2013,07,15,04,38,12.80
2013,07,15,04,39,12.80
2013,07,15,04,40,12.80
2013,07,15,04,41,12.80
2013,07,15,04,42,12.80
2013,07,15,04,43,12.80
2013,07,15,04,44,12.80
2013,07,15,04,45,12.80
2013,07,15,04,46,12.70
2013,07,15,04,47,12.70
2013,07,15,04,48,12.70
2013,07,15,04,49,12.70
2013,07,15,04,50,12.70
2013,07,15,04,51,12.70
2013,07,15,04,52,12.70
2013,07,15,04,53,12.60
2013,07,15,04,54,12.60
2013,07,15,04,55,12.70
2013,07,15,04,56,12.60
2013,07,15,04,57,12.60
2013,07,15,04,58,12.60
2013,07,15,04,59,12.60
2013,07,15,05,00,12.60
2013,07,15,05,01,12.60
2013,07,15,05,02,12.50
2013,07,15,05,03,12.50
2013,07,15,05,04,12.50
2013,07,15,05,05,12.40
2013,07,15,05,06,12.40
2013,07,15,05,07,12.40
2013,07,15,05,08,12.40
2013,07,15,05,09,12.40
2013,07,15,05,10,12.40
2013,07,15,05,11,12.30
2013,07,15,05,12,12.30
2013,07,15,05,13,12.30
2013,07,15,05,14,12.30
2013,07,15,05,15,12.30
2013,07,15,05,16,12.30
2013,07,15,05,17,12.30
2013,07,15,05,18,12.30
2013,07,15,05,19,12.30
2013,07,15,05,20,12.30
2013,07,15,05,21,12.30
2013,07,15,05,22,12.30
2013,07,15,05,23,12.20
2013,07,15,05,24,12.20
2013,07,15,05,25,12.20
2013,07,15,05,26,12.20
2013,07,15,05,27,12.10
2013,07,15,05,28,12.10
2013,07,15,05,29,12.10
2013,07,15,05,30,12.00
2013,07,15,05,31,12.00
2013,07,15,05,32,12.00
2013,07,15,05,33,12.00
2013,07,15,05,34,11.90
2013,07,15,05,35,11.90
2013,07,15,05,36,11.90
2013,07,15,05,37,11.90
2013,07,15,05,38,11.90
2013,07,15,05,39,11.90
2013,07,15,05,40,11.80
2013,07,15,05,41,11.80
2013,07,15,05,42,11.80
2013,07,15,05,43,11.80
2013,07,15,05,44,11.80
2013,07,15,05,45,11.80
2013,07,15,05,46,11.70
2013,07,15,05,47,11.70
2013,07,15,05,48,11.70
2013,07,15,05,49,11.70
2013,07,15,05,50,11.60
2013,07,15,05,51,11.60
2013,07,15,05,52,11.60
2013,07,15,05,53,11.60
2013,07,15,05,54,11.50
2013,07,15,05,55,11.50
2013,07,15,05,56,11.50
2013,07,15,05,57,11.40
2013,07,15,05,58,11.40
2013,07,15,05,59,11.40
2013,07,15,06,00,11.40
2013,07,15,06,01,11.40
2013,07,15,06,02,11.40
2013,07,15,06,03,11.40
2013,07,15,06,04,11.40
2013,07,15,06,05,11.40
2013,07,15,06,06,11.40
2013,07,15,06,07,11.40
2013,07,15,06,08,11.40
2013,07,15,06,09,11.40
2013,07,15,06,10,11.40
2013,07,15,06,11,11.40
2013,07,15,06,12,11.40
2013,07,15,06,13,11.40
2013,07,15,06,14,11.40
2013,07,15,06,15,11.40
2013,07,15,06,16,11.50
2013,07,15,06,17,11.50
2013,07,15,06,18,11.50
2013,07,15,06,19,11.60
2013,07,15,06,20,11.60
2013,07,15,06,21,11.70
2013,07,15,06,22,11.70
2013,07,15,06,23,11.80
2013,07,15,06,24,11.80
2013,07,15,06,25,11.90
2013,07,15,06,26,11.90
2013,07,15,06,27,11.90
2013,07,15,06,28,12.00
2013,07,15,06,29,12.00
2013,07,15,06,30,12.10
2013,07,15,06,31,12.10
2013,07,15,06,32,12.20
2013,07,15,06,33,12.30
2013,07,15,06,34,12.30
2013,07,15,06,35,12.30
2013,07,15,06,36,12.40
2013,07,15,06,37,12.40
2013,07,15,06,38,12.50
2013,07,15,06,39,12.60
2013,07,15,06,40,12.60
2013,07,15,06,41,12.70
2013,07,15,06,42,12.70
2013,07,15,06,43,12.80
2013,07,15,06,44,12.90
2013,07,15,06,45,12.90
2013,07,15,06,46,13.00
2013,07,15,06,47,13.10
2013,07,15,06,48,13.10
2013,07,15,06,49,13.10
2013,07,15,06,50,13.20
2013,07,15,06,51,13.30
2013,07,15,06,52,13.30
2013,07,15,06,53,13.30
2013,07,15,06,54,13.40
2013,07,15,06,55,13.40
2013,07,15,06,56,13.50
2013,07,15,06,57,13.50
2013,07,15,06,58,13.60
2013,07,15,06,59,13.60
2013,07,15,07,00,13.70
2013,07,15,07,01,13.70
2013,07,15,07,02,13.70
2013,07,15,07,03,13.70
2013,07,15,07,04,13.80
2013,07,15,07,05,13.80
2013,07,15,07,06,13.90
2013,07,15,07,07,13.90
2013,07,15,07,08,13.90
2013,07,15,07,09,14.00
2013,07,15,07,10,14.00
2013,07,15,07,11,14.10
2013,07,15,07,12,14.10
2013,07,15,07,13,14.10
2013,07,15,07,14,14.20
2013,07,15,07,15,14.20
2013,07,15,07,16,14.30
2013,07,15,07,17,14.30
2013,07,15,07,18,14.40
2013,07,15,07,19,14.40
2013,07,15,07,20,14.50
2013,07,15,07,21,14.50
2013,07,15,07,22,14.60
2013,07,15,07,23,14.70
2013,07,15,07,24,14.70
2013,07,15,07,25,14.80
2013,07,15,07,26,14.90
2013,07,15,07,27,14.90
2013,07,15,07,28,15.00
2013,07,15,07,29,15.10
2013,07,15,07,30,15.10
2013,07,15,07,31,15.20
2013,07,15,07,32,15.20
2013,07,15,07,33,15.20
2013,07,15,07,34,15.20
2013,07,15,07,35,15.30
2013,07,15,07,36,15.30
2013,07,15,07,37,15.40
2013,07,15,07,38,15.40
2013,07,15,07,39,15.50
2013,07,15,07,40,15.50
2013,07,15,07,41,15.60
2013,07,15,07,42,15.60
2013,07,15,07,43,15.60
2013,07,15,07,44,15.70
2013,07,15,07,45,15.70
2013,07,15,07,46,15.70
2013,07,15,07,47,15.80
2013,07,15,07,48,15.80
2013,07,15,07,49,15.80
2013,07,15,07,50,15.80
2013,07,15,07,51,15.80
2013,07,15,07,52,15.80
2013,07,15,07,53,15.80
2013,07,15,07,54,15.90
2013,07,15,07,55,15.90
2013,07,15,07,56,15.90
2013,07,15,07,57,15.90
2013,07,15,07,58,16.00
2013,07,15,07,59,16.00
2013,07,15,08,00,16.10
2013,07,15,08,01,16.20
2013,07,15,08,02,16.20
2013,07,15,08,03,16.30
2013,07,15,08,04,16.30
2013,07,15,08,05,16.40
2013,07,15,08,06,16.40
2013,07,15,08,07,16.50
2013,07,15,08,08,16.50
2013,07,15,08,09,16.60
2013,07,15,08,10,16.60
2013,07,15,08,11,16.60
2013,07,15,08,12,16.70
2013,07,15,08,13,16.70
2013,07,15,08,14,16.70
2013,07,15,08,15,16.80
2013,07,15,08,16,16.80
2013,07,15,08,17,16.70
2013,07,15,08,18,16.70
2013,07,15,08,19,16.80
2013,07,15,08,20,16.80
2013,07,15,08,21,16.90
2013,07,15,08,22,16.90
2013,07,15,08,23,17.00
2013,07,15,08,24,17.10
2013,07,15,08,25,17.10
2013,07,15,08,26,17.10
2013,07,15,08,27,17.20
2013,07,15,08,28,17.30
2013,07,15,08,29,17.40
2013,07,15,08,30,17.40
2013,07,15,08,31,17.40
2013,07,15,08,32,17.40
2013,07,15,08,33,17.50
2013,07,15,08,34,17.50
2013,07,15,08,35,17.50
2013,07,15,08,36,17.50
2013,07,15,08,37,17.60
2013,07,15,08,38,17.60
2013,07,15,08,39,17.70
2013,07,15,08,40,17.70
2013,07,15,08,41,17.60
2013,07,15,08,42,17.60
2013,07,15,08,43,17.60
2013,07,15,08,44,17.60
2013,07,15,08,45,17.60
2013,07,15,08,46,17.60
2013,07,15,08,47,17.50
2013,07,15,08,48,17.50
2013,07,15,08,49,17.50
2013,07,15,08,50,17.50
2013,07,15,08,51,17.40
2013,07,15,08,52,17.40
2013,07,15,08,53,17.40
2013,07,15,08,54,17.30
2013,07,15,08,55,17.30
2013,07,15,08,56,17.30
2013,07,15,08,57,17.30
2013,07,15,08,58,17.20
2013,07,15,08,59,17.30
2013,07,15,09,00,17.30
2013,07,15,09,01,17.30
2013,07,15,09,02,17.30
2013,07,15,09,03,17.30
2013,07,15,09,04,17.30
2013,07,15,09,05,17.40
2013,07,15,09,06,17.50
2013,07,15,09,07,17.60
2013,07,15,09,08,17.60
2013,07,15,09,09,17.60
2013,07,15,09,10,17.60
2013,07,15,09,11,17.60
2013,07,15,09,12,17.70
2013,07,15,09,13,17.80
2013,07,15,09,14,17.80
2013,07,15,09,15,17.70
2013,07,15,09,16,17.70
2013,07,15,09,17,17.70
2013,07,15,09,18,17.70
2013,07,15,09,19,17.80
2013,07,15,09,20,17.80
2013,07,15,09,21,17.80
2013,07,15,09,22,17.80
2013,07,15,09,23,17.80
2013,07,15,09,24,17.80
2013,07,15,09,25,17.90
2013,07,15,09,26,17.90
2013,07,15,09,27,18.00
2013,07,15,09,28,18.00
2013,07,15,09,29,18.10
2013,07,15,09,30,18.10
2013,07,15,09,31,18.20
2013,07,15,09,32,18.20
2013,07,15,09,33,18.20
2013,07,15,09,34,18.20
2013,07,15,09,35,18.20
2013,07,15,09,36,18.20
2013,07,15,09,37,18.30
2013,07,15,09,38,18.30
2013,07,15,09,39,18.30
2013,07,15,09,40,18.30
2013,07,15,09,41,18.30
2013,07,15,09,42,18.20
2013,07,15,09,43,18.20
2013,07,15,09,44,18.10
2013,07,15,09,45,18.10
2013,07,15,09,46,18.10
2013,07,15,09,47,18.20
2013,07,15,09,48,18.20
2013,07,15,09,49,18.20
2013,07,15,09,50,18.20
2013,07,15,09,51,18.20
2013,07,15,09,52,18.20
2013,07,15,09,53,18.30
2013,07,15,09,54,18.30
2013,07,15,09,55,18.40
2013,07,15,09,56,18.60
2013,07,15,09,57,18.70
2013,07,15,09,58,18.80
2013,07,15,09,59,18.90
2013,07,15,10,00,19.00
2013,07,15,10,01,19.00
2013,07,15,10,02,19.00
2013,07,15,10,03,18.80
2013,07,15,10,04,18.70
2013,07,15,10,05,18.60
2013,07,15,10,06,18.50
2013,07,15,10,07,18.40
2013,07,15,10,08,18.40
2013,07,15,10,09,18.40
2013,07,15,10,10,18.40
2013,07,15,10,11,18.40
2013,07,15,10,12,18.30
2013,07,15,10,13,18.30
2013,07,15,10,14,18.30
2013,07,15,10,15,18.20
2013,07,15,10,16,18.20
2013,07,15,10,17,18.20
2013,07,15,10,18,18.20
2013,07,15,10,19,18.20
2013,07,15,10,20,18.20
2013,07,15,10,21,18.20
2013,07,15,10,22,18.20
2013,07,15,10,23,18.20
2013,07,15,10,24,18.20
2013,07,15,10,25,18.30
2013,07,15,10,26,18.20
2013,07,15,10,27,18.20
2013,07,15,10,28,18.10
2013,07,15,10,29,18.10
2013,07,15,10,30,18.10
2013,07,15,10,31,18.10
2013,07,15,10,32,18.20
2013,07,15,10,33,18.20
2013,07,15,10,34,18.20
2013,07,15,10,35,18.30
2013,07,15,10,36,18.40
2013,07,15,10,37,18.40
2013,07,15,10,38,18.40
2013,07,15,10,39,18.40
2013,07,15,10,40,18.50
2013,07,15,10,41,18.50
2013,07,15,10,42,18.60
2013,07,15,10,43,18.60
2013,07,15,10,44,18.60
2013,07,15,10,45,18.70
2013,07,15,10,46,18.70
2013,07,15,10,47,18.80
2013,07,15,10,48,18.80
2013,07,15,10,49,18.80
2013,07,15,10,50,18.80
2013,07,15,10,51,18.80
2013,07,15,10,52,18.80
2013,07,15,10,53,18.80
2013,07,15,10,54,18.80
2013,07,15,10,55,18.80
2013,07,15,10,56,18.80
2013,07,15,10,57,18.70
2013,07,15,10,58,18.70
2013,07,15,10,59,18.60
2013,07,15,11,00,18.50
2013,07,15,11,01,18.50
2013,07,15,11,02,18.40
2013,07,15,11,03,18.30
2013,07,15,11,04,18.20
2013,07,15,11,05,18.20
2013,07,15,11,06,18.20
2013,07,15,11,07,18.30
2013,07,15,11,08,18.30
2013,07,15,11,09,18.40
2013,07,15,11,10,18.40
2013,07,15,11,11,18.40
2013,07,15,11,12,18.50
2013,07,15,11,13,18.60
2013,07,15,11,14,18.70
2013,07,15,11,15,18.80
2013,07,15,11,16,18.90
2013,07,15,11,17,18.90
2013,07,15,11,18,19.00
2013,07,15,11,19,19.00
2013,07,15,11,20,19.00
2013,07,15,11,21,19.00
2013,07,15,11,22,18.90
2013,07,15,11,23,18.90
2013,07,15,11,24,18.90
2013,07,15,11,25,18.80
2013,07,15,11,26,18.80
2013,07,15,11,27,18.90
2013,07,15,11,28,19.00
2013,07,15,11,29,19.10
2013,07,15,11,30,19.20
2013,07,15,11,31,19.30
2013,07,15,11,32,19.30
2013,07,15,11,33,19.30
2013,07,15,11,34,19.30
2013,07,15,11,35,19.30
2013,07,15,11,36,19.40
2013,07,15,11,37,19.40
2013,07,15,11,38,19.40
2013,07,15,11,39,19.40
2013,07,15,11,40,19.50
2013,07,15,11,41,19.50
2013,07,15,11,42,19.50
2013,07,15,11,43,19.50
2013,07,15,11,44,19.50
2013,07,15,11,45,19.40
2013,07,15,11,46,19.40
2013,07,15,11,47,19.40
2013,07,15,11,48,19.40
2013,07,15,11,49,19.50
2013,07,15,11,50,19.50
2013,07,15,11,51,19.60
2013,07,15,11,52,19.60
2013,07,15,11,53,19.50
2013,07,15,11,54,19.50
2013,07,15,11,55,19.40
2013,07,15,11,56,19.30
2013,07,15,11,57,19.40
2013,07,15,11,58,19.40
2013,07,15,11,59,19.40
2013,07,15,12,00,19.40
2013,07,15,12,01,19.50
2013,07,15,12,02,19.50
2013,07,15,12,03,19.50
2013,07,15,12,04,19.60
2013,07,15,12,05,19.60
2013,07,15,12,06,19.70
2013,07,15,12,07,19.80
2013,07,15,12,08,19.80
2013,07,15,12,09,19.90
2013,07,15,12,10,19.90
2013,07,15,12,11,19.80
2013,07,15,12,12,19.70
2013,07,15,12,13,19.70
2013,07,15,12,14,19.70
2013,07,15,12,15,19.80
2013,07,15,12,16,19.80
2013,07,15,12,17,19.80
2013,07,15,12,18,19.80
2013,07,15,12,19,19.60
2013,07,15,12,20,19.50
2013,07,15,12,21,19.40
2013,07,15,12,22,19.30
2013,07,15,12,23,19.40
2013,07,15,12,24,19.50
2013,07,15,12,25,19.60
2013,07,15,12,26,19.70
2013,07,15,12,27,19.80
2013,07,15,12,28,19.80
2013,07,15,12,29,19.90
2013,07,15,12,30,19.90
2013,07,15,12,31,20.00
2013,07,15,12,32,20.00
2013,07,15,12,33,20.00
2013,07,15,12,34,20.00
2013,07,15,12,35,20.00
2013,07,15,12,36,19.90
2013,07,15,12,37,19.90
2013,07,15,12,38,19.80
2013,07,15,12,39,19.80
2013,07,15,12,40,19.80
2013,07,15,12,41,19.80
2013,07,15,12,42,19.80
2013,07,15,12,43,19.90
2013,07,15,12,44,20.00
2013,07,15,12,45,20.10
2013,07,15,12,46,20.30
2013,07,15,12,47,20.40
2013,07,15,12,48,20.50
2013,07,15,12,49,20.60
2013,07,15,12,50,20.60
2013,07,15,12,51,20.60
2013,07,15,12,52,20.60
2013,07,15,12,53,20.50
2013,07,15,12,54,20.50
2013,07,15,12,55,20.40
2013,07,15,12,56,20.30
2013,07,15,12,57,20.30
2013,07,15,12,58,20.30
2013,07,15,12,59,20.20
2013,07,15,13,00,20.20
2013,07,15,13,01,20.20
2013,07,15,13,02,20.10
2013,07,15,13,03,20.20
2013,07,15,13,04,20.20
2013,07,15,13,05,20.30
2013,07,15,13,06,20.30
2013,07,15,13,07,20.30
2013,07,15,13,08,20.30
2013,07,15,13,09,20.40
2013,07,15,13,10,20.50
2013,07,15,13,11,20.70
2013,07,15,13,12,20.80
2013,07,15,13,13,20.90
2013,07,15,13,14,20.90
2013,07,15,13,15,21.00
2013,07,15,13,16,21.00
2013,07,15,13,17,21.10
2013,07,15,13,18,21.10
2013,07,15,13,19,21.10
2013,07,15,13,20,21.10
2013,07,15,13,21,21.00
2013,07,15,13,22,20.90
2013,07,15,13,23,20.80
2013,07,15,13,24,20.80
2013,07,15,13,25,20.70
2013,07,15,13,26,20.70
2013,07,15,13,27,20.70
2013,07,15,13,28,20.70
2013,07,15,13,29,20.80
2013,07,15,13,30,20.90
2013,07,15,13,31,21.00
2013,07,15,13,32,21.00
2013,07,15,13,33,21.10
2013,07,15,13,34,21.10
2013,07,15,13,35,21.20
2013,07,15,13,36,21.30
2013,07,15,13,37,21.40
2013,07,15,13,38,21.50
2013,07,15,13,39,21.60
2013,07,15,13,40,21.60
2013,07,15,13,41,21.50
2013,07,15,13,42,21.50
2013,07,15,13,43,21.50
2013,07,15,13,44,21.50
2013,07,15,13,45,21.50
2013,07,15,13,46,21.50
2013,07,15,13,47,21.50
2013,07,15,13,48,21.60
2013,07,15,13,49,21.60
2013,07,15,13,50,21.70
2013,07,15,13,51,21.70
2013,07,15,13,52,21.70
2013,07,15,13,53,21.80
2013,07,15,13,54,21.80
2013,07,15,13,55,21.80
2013,07,15,13,56,21.90
2013,07,15,13,57,21.90
2013,07,15,13,58,22.00
2013,07,15,13,59,22.10
2013,07,15,14,00,22.20
2013,07,15,14,01,22.20
2013,07,15,14,02,22.40
2013,07,15,14,03,22.50
2013,07,15,14,04,22.60
2013,07,15,14,05,22.70
2013,07,15,14,06,22.80
2013,07,15,14,07,22.90
2013,07,15,14,08,23.00
2013,07,15,14,09,23.20
2013,07,15,14,10,23.30
2013,07,15,14,11,23.40
2013,07,15,14,12,23.40
2013,07,15,14,13,23.40
2013,07,15,14,14,23.40
2013,07,15,14,15,23.30
2013,07,15,14,16,23.30
2013,07,15,14,17,23.30
2013,07,15,14,18,23.30
2013,07,15,14,19,23.20
2013,07,15,14,20,23.20
2013,07,15,14,21,23.20
2013,07,15,14,22,23.20
2013,07,15,14,23,23.30
2013,07,15,14,24,23.30
2013,07,15,14,25,23.20
2013,07,15,14,26,23.10
2013,07,15,14,27,23.10
2013,07,15,14,28,23.00
2013,07,15,14,29,22.90
2013,07,15,14,30,22.90
2013,07,15,14,31,22.80
2013,07,15,14,32,22.80
2013,07,15,14,33,22.80
2013,07,15,14,34,23.00
2013,07,15,14,35,23.10
2013,07,15,14,36,23.20
2013,07,15,14,37,23.20
2013,07,15,14,38,23.30
2013,07,15,14,39,23.30
2013,07,15,14,40,23.30
2013,07,15,14,41,23.30
2013,07,15,14,42,23.20
2013,07,15,14,43,23.20
2013,07,15,14,44,23.30
2013,07,15,14,45,23.30
2013,07,15,14,46,23.40
2013,07,15,14,47,23.50
2013,07,15,14,48,23.60
2013,07,15,14,49,23.60
2013,07,15,14,50,23.60
2013,07,15,14,51,23.70
2013,07,15,14,52,23.70
2013,07,15,14,53,23.70
2013,07,15,14,54,23.70
2013,07,15,14,55,23.80
2013,07,15,14,56,23.80
2013,07,15,14,57,23.90
2013,07,15,14,58,23.90
2013,07,15,14,59,23.90
2013,07,15,15,00,23.90
2013,07,15,15,01,23.90
2013,07,15,15,02,24.00
2013,07,15,15,03,24.00
2013,07,15,15,04,24.00
2013,07,15,15,05,24.10
2013,07,15,15,06,24.10
2013,07,15,15,07,24.10
2013,07,15,15,08,24.10
2013,07,15,15,09,24.20
2013,07,15,15,10,24.20
2013,07,15,15,11,24.30
2013,07,15,15,12,24.40
2013,07,15,15,13,24.40
2013,07,15,15,14,24.50
2013,07,15,15,15,24.60
2013,07,15,15,16,24.80
2013,07,15,15,17,24.90
2013,07,15,15,18,25.00
2013,07,15,15,19,25.10
2013,07,15,15,20,25.20
2013,07,15,15,21,25.20
2013,07,15,15,22,25.20
2013,07,15,15,23,25.30
2013,07,15,15,24,25.30
2013,07,15,15,25,25.30
2013,07,15,15,26,25.40
2013,07,15,15,27,25.40
2013,07,15,15,28,25.30
2013,07,15,15,29,25.20
2013,07,15,15,30,25.20
2013,07,15,15,31,25.10
2013,07,15,15,32,25.00
2013,07,15,15,33,25.00
2013,07,15,15,34,24.90
2013,07,15,15,35,24.90
2013,07,15,15,36,24.80
2013,07,15,15,37,24.80
2013,07,15,15,38,24.80
2013,07,15,15,39,24.80
2013,07,15,15,40,24.80
2013,07,15,15,41,24.90
2013,07,15,15,42,24.90
2013,07,15,15,43,24.90
2013,07,15,15,44,24.90
2013,07,15,15,45,24.90
2013,07,15,15,46,24.90
2013,07,15,15,47,25.00
2013,07,15,15,48,25.00
2013,07,15,15,49,25.00
2013,07,15,15,50,25.00
2013,07,15,15,51,25.00
2013,07,15,15,52,25.00
2013,07,15,15,53,24.90
2013,07,15,15,54,24.90
2013,07,15,15,55,24.90
2013,07,15,15,56,24.90
2013,07,15,15,57,24.90
2013,07,15,15,58,25.00
2013,07,15,15,59,25.00
2013,07,15,16,00,25.10
2013,07,15,16,01,25.20
2013,07,15,16,02,25.30
2013,07,15,16,03,25.30
2013,07,15,16,04,25.30
2013,07,15,16,05,25.40
2013,07,15,16,06,25.50
2013,07,15,16,07,25.60
2013,07,15,16,08,25.70
2013,07,15,16,09,25.70
2013,07,15,16,10,25.70
2013,07,15,16,11,25.70
2013,07,15,16,12,25.80
2013,07,15,16,13,25.80
2013,07,15,16,14,25.80
2013,07,15,16,15,25.80
2013,07,15,16,16,25.80
2013,07,15,16,17,25.70
2013,07,15,16,18,25.80
2013,07,15,16,19,25.80
2013,07,15,16,20,25.80
2013,07,15,16,21,25.80
2013,07,15,16,22,25.80
2013,07,15,16,23,25.80
2013,07,15,16,24,25.80
2013,07,15,16,25,25.80
2013,07,15,16,26,25.70
2013,07,15,16,27,25.70
2013,07,15,16,28,25.60
2013,07,15,16,29,25.60
2013,07,15,16,30,25.50
2013,07,15,16,31,25.50
2013,07,15,16,32,25.50
2013,07,15,16,33,25.40
2013,07,15,16,34,25.40
2013,07,15,16,35,25.40
2013,07,15,16,36,25.40
2013,07,15,16,37,25.50
2013,07,15,16,38,25.60
2013,07,15,16,39,25.60
2013,07,15,16,40,25.70
2013,07,15,16,41,25.70
2013,07,15,16,42,25.80
2013,07,15,16,43,25.80
2013,07,15,16,44,25.80
2013,07,15,16,45,25.90
2013,07,15,16,46,25.90
2013,07,15,16,47,25.90
2013,07,15,16,48,25.90
2013,07,15,16,49,25.90
2013,07,15,16,50,25.90
2013,07,15,16,51,25.90
2013,07,15,16,52,25.90
2013,07,15,16,53,25.90
2013,07,15,16,54,25.90
2013,07,15,16,55,25.90
2013,07,15,16,56,25.90
2013,07,15,16,57,25.90
2013,07,15,16,58,25.90
2013,07,15,16,59,25.90
2013,07,15,17,00,25.90
2013,07,15,17,01,25.80
2013,07,15,17,02,25.90
2013,07,15,17,03,25.90
2013,07,15,17,04,25.90
2013,07,15,17,05,25.90
2013,07,15,17,06,25.90
2013,07,15,17,07,25.90
2013,07,15,17,08,25.90
2013,07,15,17,09,25.90
2013,07,15,17,10,25.90
2013,07,15,17,11,25.90
2013,07,15,17,12,25.90
2013,07,15,17,13,25.90
2013,07,15,17,14,25.90
2013,07,15,17,15,25.80
2013,07,15,17,16,25.80
2013,07,15,17,17,25.80
2013,07,15,17,18,25.80
2013,07,15,17,19,25.80